Time,TemperatureF,DewpointF,PressureIn,WindDirection,WindDirectionDegrees,WindSpeedMPH,WindSpeedGustMPH,Humidity,HourlyPrecipIn,Conditions,Clouds,dailyrainin,SoftwareType,DateUTC
2013-03-11 00:03:00,47.8,44.5,29.47,WNW,282,0.0,0.0,88,0.00,,---,0.00,VWS V14.01,2013-03-10 23:03:00,
2013-03-11 00:08:00,47.8,44.5,29.47,WNW,282,0.0,0.0,88,0.00,,---,0.00,VWS V14.01,2013-03-10 23:08:00,
2013-03-11 00:13:00,47.7,44.3,29.47,WNW,282,3.1,3.1,88,0.00,,---,0.00,VWS V14.01,2013-03-10 23:13:00,
2013-03-11 00:18:00,47.7,44.3,29.47,WNW,282,0.0,0.0,88,0.00,,---,0.00,VWS V14.01,2013-03-10 23:18:00,
2013-03-11 00:23:00,47.7,44.3,29.47,WNW,282,0.0,2.7,88,0.00,,---,0.00,VWS V14.01,2013-03-10 23:23:00,
2013-03-11 00:28:00,47.5,44.4,29.47,West,280,2.7,3.6,89,0.00,,---,0.00,VWS V14.01,2013-03-10 23:28:00,
2013-03-11 00:33:00,47.5,44.4,29.47,West,278,0.0,3.6,89,0.00,,---,0.00,VWS V14.01,2013-03-10 23:33:00,
2013-03-11 00:38:00,47.5,44.4,29.47,West,273,3.6,3.6,89,0.00,,---,0.00,VWS V14.01,2013-03-10 23:38:00,
2013-03-11 00:43:00,47.3,44.2,29.47,West,274,0.0,0.0,89,0.00,,---,0.00,VWS V14.01,2013-03-10 23:43:00,
2013-03-11 00:48:00,47.3,44.2,29.47,West,276,4.5,4.5,89,0.00,,---,0.00,VWS V14.01,2013-03-10 23:48:00,
2013-03-11 00:53:00,47.3,44.2,29.47,West,272,0.0,3.1,89,0.00,,---,0.00,VWS V14.01,2013-03-10 23:53:00,
2013-03-11 00:58:00,47.3,44.2,29.47,West,272,0.0,0.0,89,0.00,,---,0.00,VWS V14.01,2013-03-10 23:58:00,
2013-03-11 01:03:00,47.1,44.0,29.47,West,272,0.0,0.0,89,0.00,,---,0.00,VWS V14.01,2013-03-11 00:03:00,
2013-03-11 01:08:00,46.9,43.9,29.47,West,272,0.0,0.0,89,0.00,,---,0.00,VWS V14.01,2013-03-11 00:08:00,
2013-03-11 01:13:00,46.9,43.9,29.47,West,272,0.0,0.0,89,0.00,,---,0.00,VWS V14.01,2013-03-11 00:13:00,
2013-03-11 01:18:00,46.9,44.2,29.47,West,272,0.0,0.0,90,0.00,,---,0.00,VWS V14.01,2013-03-11 00:18:00,
2013-03-11 01:23:00,46.8,44.0,29.47,West,272,0.0,0.0,90,0.00,,---,0.00,VWS V14.01,2013-03-11 00:23:00,
2013-03-11 01:28:00,46.6,43.5,29.47,SW,219,3.6,4.0,89,0.00,,---,0.00,VWS V14.01,2013-03-11 00:28:00,
2013-03-11 01:33:00,46.4,43.6,29.47,SW,219,2.7,3.6,90,0.00,,---,0.00,VWS V14.01,2013-03-11 00:33:00,
2013-03-11 01:38:00,46.0,43.0,29.47,SW,219,0.0,0.0,89,0.00,,---,0.00,VWS V14.01,2013-03-11 00:38:00,
2013-03-11 01:43:00,45.9,42.8,29.47,SW,219,0.0,0.0,89,0.00,,---,0.00,VWS V14.01,2013-03-11 00:43:00,
2013-03-11 01:48:00,45.9,43.1,29.47,SW,219,0.0,0.0,90,0.00,,---,0.00,VWS V14.01,2013-03-11 00:48:00,
2013-03-11 01:53:00,45.7,42.9,29.47,SW,219,0.0,0.0,90,0.00,,---,0.00,VWS V14.01,2013-03-11 00:53:00,
2013-03-11 01:58:00,45.7,42.9,29.47,SW,219,0.0,0.0,90,0.00,,---,0.00,VWS V14.01,2013-03-11 00:58:00,
2013-03-11 02:03:00,45.5,42.7,29.47,SW,219,0.0,0.0,90,0.00,,---,0.00,VWS V14.01,2013-03-11 01:03:00,
2013-03-11 02:08:00,45.5,43.0,29.47,SW,219,0.0,0.0,91,0.00,,---,0.00,VWS V14.01,2013-03-11 01:08:00,
2013-03-11 02:14:00,45.1,42.7,29.47,SW,219,0.0,0.0,91,0.00,,---,0.00,VWS V14.01,2013-03-11 01:14:00,
2013-03-11 02:19:00,45.0,42.2,29.47,SW,219,0.0,2.7,90,0.00,,---,0.00,VWS V14.01,2013-03-11 01:19:00,
2013-03-11 02:24:00,44.8,42.3,29.47,SW,219,0.0,0.0,91,0.00,,---,0.00,VWS V14.01,2013-03-11 01:24:00,
2013-03-11 02:29:00,44.6,42.1,29.47,SW,219,0.0,0.0,91,0.00,,---,0.00,VWS V14.01,2013-03-11 01:29:00,
2013-03-11 02:34:00,44.4,42.0,29.47,SW,219,0.0,0.0,91,0.00,,---,0.00,VWS V14.01,2013-03-11 01:34:00,
2013-03-11 02:39:00,44.2,41.8,29.47,SW,219,0.0,0.0,91,0.00,,---,0.00,VWS V14.01,2013-03-11 01:39:00,
2013-03-11 02:44:00,44.1,41.6,29.47,SW,219,0.0,3.1,91,0.00,,---,0.00,VWS V14.01,2013-03-11 01:44:00,
2013-03-11 02:49:00,44.1,41.6,29.47,SW,219,0.0,0.0,91,0.00,,---,0.00,VWS V14.01,2013-03-11 01:49:00,
2013-03-11 02:54:00,43.9,41.4,29.47,SW,219,0.0,0.0,91,0.00,,---,0.00,VWS V14.01,2013-03-11 01:54:00,
2013-03-11 02:59:00,43.9,41.4,29.47,SW,219,0.0,2.7,91,0.00,,---,0.00,VWS V14.01,2013-03-11 01:59:00,
2013-03-11 03:04:00,43.7,41.2,29.47,SW,230,0.0,0.0,91,0.00,,---,0.00,VWS V14.01,2013-03-11 02:04:00,
2013-03-11 03:09:00,43.7,41.5,29.47,SW,230,0.0,2.7,92,0.00,,---,0.00,VWS V14.01,2013-03-11 02:09:00,
2013-03-11 03:14:00,43.7,41.5,29.47,SW,230,4.0,4.9,92,0.00,,---,0.00,VWS V14.01,2013-03-11 02:14:00,
2013-03-11 03:19:00,43.7,41.5,29.47,SW,230,4.0,4.0,92,0.00,,---,0.00,VWS V14.01,2013-03-11 02:19:00,
2013-03-11 03:24:00,43.7,41.5,29.47,WSW,253,2.7,4.5,92,0.00,,---,0.00,VWS V14.01,2013-03-11 02:24:00,
2013-03-11 03:29:00,43.7,41.8,29.47,NW,310,5.4,5.4,93,0.00,,---,0.00,VWS V14.01,2013-03-11 02:29:00,
2013-03-11 03:34:00,43.7,41.8,29.47,North,351,4.0,4.5,93,0.00,,---,0.00,VWS V14.01,2013-03-11 02:34:00,
2013-03-11 03:39:00,43.7,42.1,29.47,NNW,341,3.6,4.5,94,0.00,,---,0.00,VWS V14.01,2013-03-11 02:39:00,
2013-03-11 03:44:00,43.5,41.9,29.47,NNW,341,3.6,4.5,94,0.00,,---,0.00,VWS V14.01,2013-03-11 02:44:00,
2013-03-11 03:49:00,43.5,41.9,29.47,NNW,336,3.6,4.5,94,0.00,,---,0.00,VWS V14.01,2013-03-11 02:49:00,
2013-03-11 03:54:00,43.5,41.9,29.47,North,351,3.6,3.6,94,0.00,,---,0.00,VWS V14.01,2013-03-11 02:54:00,
2013-03-11 03:59:00,43.5,41.9,29.47,North,351,0.0,4.5,94,0.00,,---,0.00,VWS V14.01,2013-03-11 02:59:00,
2013-03-11 04:04:00,43.3,41.7,29.47,North,351,3.6,4.0,94,0.00,,---,0.00,VWS V14.01,2013-03-11 03:04:00,
2013-03-11 04:09:00,43.3,42.0,29.47,North,351,3.1,4.0,95,0.00,,---,0.00,VWS V14.01,2013-03-11 03:09:00,
2013-03-11 04:14:00,43.3,42.0,29.47,North,351,0.0,3.6,95,0.00,,---,0.00,VWS V14.01,2013-03-11 03:14:00,
2013-03-11 04:19:00,43.3,42.0,29.47,North,351,0.0,3.1,95,0.00,,---,0.00,VWS V14.01,2013-03-11 03:19:00,
2013-03-11 04:24:00,43.2,41.8,29.47,North,351,2.7,3.6,95,0.00,,---,0.00,VWS V14.01,2013-03-11 03:24:00,
2013-03-11 04:29:00,43.0,41.7,29.47,North,351,3.1,3.1,95,0.00,,---,0.00,VWS V14.01,2013-03-11 03:29:00,
2013-03-11 04:34:00,42.8,41.2,29.47,North,351,3.6,3.6,94,0.00,,---,0.00,VWS V14.01,2013-03-11 03:34:00,
2013-03-11 04:39:00,42.4,40.8,29.47,NW,308,4.0,4.0,94,0.00,,---,0.00,VWS V14.01,2013-03-11 03:39:00,
2013-03-11 04:44:00,42.4,41.1,29.47,NW,307,3.1,3.6,95,0.00,,---,0.00,VWS V14.01,2013-03-11 03:44:00,
2013-03-11 04:49:00,42.3,40.9,29.47,NW,308,0.0,0.0,95,0.00,,---,0.00,VWS V14.01,2013-03-11 03:49:00,
2013-03-11 04:54:00,42.3,40.9,29.47,NW,306,2.7,3.6,95,0.00,,---,0.00,VWS V14.01,2013-03-11 03:54:00,
2013-03-11 04:59:00,42.1,40.8,29.47,NW,306,0.0,0.0,95,0.00,,---,0.00,VWS V14.01,2013-03-11 03:59:00,
2013-03-11 05:00:00,42.1,40.8,29.47,NW,306,0.0,0.0,95,0.00,,---,0.00,VWS V14.01,2013-03-11 04:00:00,
2013-03-11 05:05:00,41.9,40.6,29.47,NW,306,0.0,0.0,95,0.00,,---,0.00,VWS V14.01,2013-03-11 04:05:00,
2013-03-11 05:10:00,41.7,40.4,29.47,NW,306,0.0,0.0,95,0.00,,---,0.00,VWS V14.01,2013-03-11 04:10:00,
2013-03-11 05:16:00,41.7,40.4,29.47,NW,306,0.0,0.0,95,0.00,,---,0.00,VWS V14.01,2013-03-11 04:16:00,
2013-03-11 05:21:00,41.7,40.4,29.47,NW,306,0.0,0.0,95,0.00,,---,0.00,VWS V14.01,2013-03-11 04:21:00,
2013-03-11 05:26:00,41.5,40.2,29.47,NW,305,4.0,4.5,95,0.00,,---,0.00,VWS V14.01,2013-03-11 04:26:00,
2013-03-11 05:31:00,41.2,39.9,29.47,West,272,4.0,5.8,95,0.00,,---,0.00,VWS V14.01,2013-03-11 04:31:00,
2013-03-11 05:36:00,40.6,39.3,29.47,West,272,0.0,3.1,95,0.00,,---,0.00,VWS V14.01,2013-03-11 04:36:00,
2013-03-11 05:41:00,40.5,39.1,29.47,West,272,0.0,0.0,95,0.00,,---,0.00,VWS V14.01,2013-03-11 04:41:00,
2013-03-11 05:46:00,40.5,39.1,29.47,West,272,3.6,4.0,95,0.00,,---,0.00,VWS V14.01,2013-03-11 04:46:00,
2013-03-11 05:51:00,40.5,39.1,29.47,West,272,0.0,0.0,95,0.00,,---,0.00,VWS V14.01,2013-03-11 04:51:00,
2013-03-11 05:56:00,40.6,39.3,29.47,West,272,0.0,0.0,95,0.00,,---,0.00,VWS V14.01,2013-03-11 04:56:00,
2013-03-11 06:01:00,40.8,39.5,29.47,West,272,0.0,0.0,95,0.00,,---,0.00,VWS V14.01,2013-03-11 05:01:00,
2013-03-11 06:06:00,40.8,39.5,29.47,West,272,0.0,0.0,95,0.00,,---,0.00,VWS V14.01,2013-03-11 05:06:00,
2013-03-11 06:11:00,40.6,39.3,29.47,West,272,0.0,3.1,95,0.00,,---,0.00,VWS V14.01,2013-03-11 05:11:00,
2013-03-11 06:16:00,40.5,39.1,29.47,West,272,0.0,0.0,95,0.00,,---,0.00,VWS V14.01,2013-03-11 05:16:00,
2013-03-11 06:21:00,40.3,39.0,29.47,West,272,0.0,0.0,95,0.00,,---,0.00,VWS V14.01,2013-03-11 05:21:00,
2013-03-11 06:26:00,40.1,39.0,29.47,West,272,0.0,2.7,96,0.00,,---,0.00,VWS V14.01,2013-03-11 05:26:00,
2013-03-11 06:31:00,40.1,38.8,29.47,West,268,4.5,4.5,95,0.00,,---,0.00,VWS V14.01,2013-03-11 05:31:00,
2013-03-11 06:36:00,40.6,39.6,29.47,West,268,3.6,4.0,96,0.00,,---,0.00,VWS V14.01,2013-03-11 05:36:00,
2013-03-11 06:41:00,41.2,40.1,29.47,West,260,3.6,3.6,96,0.00,,---,0.00,VWS V14.01,2013-03-11 05:41:00,
2013-03-11 06:46:00,41.9,40.8,29.47,West,260,0.0,0.0,96,0.00,,---,0.00,VWS V14.01,2013-03-11 05:46:00,
2013-03-11 06:51:00,42.3,41.2,29.47,West,260,0.0,0.0,96,0.00,,---,0.00,VWS V14.01,2013-03-11 05:51:00,
2013-03-11 06:56:00,42.8,41.7,29.47,West,260,3.6,4.0,96,0.00,,---,0.00,VWS V14.01,2013-03-11 05:56:00,
2013-03-11 07:01:00,43.0,41.9,29.47,West,260,3.1,4.9,96,0.00,,---,0.00,VWS V14.01,2013-03-11 06:01:00,
2013-03-11 07:06:00,43.7,42.6,29.47,West,260,0.0,0.0,96,0.00,,---,0.00,VWS V14.01,2013-03-11 06:06:00,
2013-03-11 07:11:00,43.5,42.5,29.47,West,260,0.0,0.0,96,0.00,,---,0.00,VWS V14.01,2013-03-11 06:11:00,
2013-03-11 07:16:00,42.8,41.7,29.47,West,260,0.0,0.0,96,0.00,,---,0.00,VWS V14.01,2013-03-11 06:16:00,
2013-03-11 07:21:00,42.1,40.8,29.47,West,260,0.0,0.0,95,0.00,,---,0.00,VWS V14.01,2013-03-11 06:21:00,
2013-03-11 07:26:00,42.1,40.8,29.47,West,260,0.0,2.7,95,0.00,,---,0.00,VWS V14.01,2013-03-11 06:26:00,
2013-03-11 07:31:00,42.1,41.0,29.47,West,260,0.0,0.0,96,0.00,,---,0.00,VWS V14.01,2013-03-11 06:31:00,
2013-03-11 07:36:00,42.3,41.2,29.50,West,260,0.0,0.0,96,0.00,,---,0.00,VWS V14.01,2013-03-11 06:36:00,
2013-03-11 07:41:00,42.4,41.4,29.50,West,260,0.0,0.0,96,0.00,,---,0.00,VWS V14.01,2013-03-11 06:41:00,
2013-03-11 07:46:00,42.8,41.7,29.50,West,260,0.0,0.0,96,0.00,,---,0.00,VWS V14.01,2013-03-11 06:46:00,
2013-03-11 07:51:00,43.2,42.4,29.47,West,260,0.0,0.0,97,0.00,,---,0.00,VWS V14.01,2013-03-11 06:51:00,
2013-03-11 07:56:00,43.5,42.7,29.47,West,260,0.0,0.0,97,0.00,,---,0.00,VWS V14.01,2013-03-11 06:56:00,
2013-03-11 08:01:00,44.4,43.6,29.47,West,260,3.6,4.5,97,0.00,,---,0.00,VWS V14.01,2013-03-11 07:01:00,
2013-03-11 08:06:00,45.3,44.5,29.47,West,260,3.6,4.5,97,0.00,,---,0.00,VWS V14.01,2013-03-11 07:06:00,
2013-03-11 08:11:00,45.5,44.4,29.47,West,260,0.0,3.6,96,0.00,,---,0.00,VWS V14.01,2013-03-11 07:11:00,
2013-03-11 08:16:00,45.5,44.4,29.47,West,260,0.0,0.0,96,0.00,,---,0.00,VWS V14.01,2013-03-11 07:16:00,
2013-03-11 08:21:00,45.1,44.1,29.50,West,260,0.0,0.0,96,0.00,,---,0.00,VWS V14.01,2013-03-11 07:21:00,
2013-03-11 08:26:00,45.0,43.9,29.50,West,260,0.0,0.0,96,0.00,,---,0.00,VWS V14.01,2013-03-11 07:26:00,
2013-03-11 08:31:00,45.1,44.1,29.50,West,260,0.0,0.0,96,0.00,,---,0.00,VWS V14.01,2013-03-11 07:31:00,
2013-03-11 08:36:00,45.0,43.9,29.50,West,260,0.0,0.0,96,0.00,,---,0.00,VWS V14.01,2013-03-11 07:36:00,
2013-03-11 08:41:00,45.0,43.9,29.50,West,260,0.0,2.7,96,0.00,,---,0.00,VWS V14.01,2013-03-11 07:41:00,
2013-03-11 08:46:00,45.9,44.8,29.50,West,260,0.0,2.7,96,0.00,,---,0.00,VWS V14.01,2013-03-11 07:46:00,
2013-03-11 08:51:00,47.3,46.5,29.50,West,260,0.0,0.0,97,0.00,,---,0.00,VWS V14.01,2013-03-11 07:51:00,
2013-03-11 08:56:00,47.5,46.4,29.50,WSW,253,0.0,0.0,96,0.00,,---,0.00,VWS V14.01,2013-03-11 07:56:00,
2013-03-11 09:01:00,48.4,47.3,29.50,WSW,240,2.7,3.6,96,0.00,,---,0.00,VWS V14.01,2013-03-11 08:01:00,
2013-03-11 09:06:00,48.9,47.8,29.50,South,178,0.0,4.0,96,0.00,,---,0.00,VWS V14.01,2013-03-11 08:06:00,
2013-03-11 09:11:00,49.6,48.3,29.50,South,179,0.0,0.0,95,0.00,,---,0.00,VWS V14.01,2013-03-11 08:11:00,
2013-03-11 09:16:00,50.2,48.8,29.50,South,179,2.7,4.0,95,0.00,,---,0.00,VWS V14.01,2013-03-11 08:16:00,
2013-03-11 09:21:00,50.5,48.9,29.50,South,178,0.0,3.6,94,0.00,,---,0.00,VWS V14.01,2013-03-11 08:21:00,
2013-03-11 09:26:00,51.6,49.7,29.50,South,178,2.7,3.6,93,0.00,,---,0.00,VWS V14.01,2013-03-11 08:26:00,
2013-03-11 09:31:00,52.2,49.6,29.50,SSE,166,6.3,6.3,91,0.00,,---,0.00,VWS V14.01,2013-03-11 08:31:00,
2013-03-11 09:36:00,52.3,48.9,29.50,SSE,150,3.6,4.5,88,0.00,,---,0.00,VWS V14.01,2013-03-11 08:36:00,
2013-03-11 09:41:00,52.9,48.5,29.50,SSE,159,0.0,4.0,85,0.00,,---,0.00,VWS V14.01,2013-03-11 08:41:00,
2013-03-11 09:46:00,54.3,49.3,29.50,South,170,0.0,3.1,83,0.00,,---,0.00,VWS V14.01,2013-03-11 08:46:00,
2013-03-11 09:51:00,55.4,49.0,29.50,South,170,0.0,3.6,79,0.00,,---,0.00,VWS V14.01,2013-03-11 08:51:00,
2013-03-11 09:56:00,55.9,48.1,29.50,South,170,0.0,2.7,75,0.00,,---,0.00,VWS V14.01,2013-03-11 08:56:00,
2013-03-11 10:01:00,56.3,47.8,29.50,South,170,2.7,4.0,73,0.00,,---,0.00,VWS V14.01,2013-03-11 09:01:00,
2013-03-11 10:06:00,56.3,46.3,29.50,South,170,3.6,3.6,69,0.00,,---,0.00,VWS V14.01,2013-03-11 09:06:00,
2013-03-11 10:11:00,56.7,46.2,29.50,South,170,0.0,4.5,68,0.00,,---,0.00,VWS V14.01,2013-03-11 09:11:00,
2013-03-11 10:16:00,57.0,46.2,29.50,South,170,0.0,3.1,67,0.00,,---,0.00,VWS V14.01,2013-03-11 09:16:00,
2013-03-11 10:21:00,57.4,46.1,29.50,SSE,160,0.0,5.4,66,0.00,,---,0.00,VWS V14.01,2013-03-11 09:21:00,
2013-03-11 10:26:00,57.6,45.9,29.50,SSE,160,3.6,4.0,65,0.00,,---,0.00,VWS V14.01,2013-03-11 09:26:00,
2013-03-11 10:31:00,58.1,46.4,29.50,SSE,160,3.6,3.6,65,0.00,,---,0.00,VWS V14.01,2013-03-11 09:31:00,
2013-03-11 10:36:00,58.6,46.1,29.50,SSE,161,0.0,0.0,63,0.00,,---,0.00,VWS V14.01,2013-03-11 09:36:00,
2013-03-11 10:41:00,58.5,45.1,29.50,SSE,161,2.7,3.1,61,0.00,,---,0.00,VWS V14.01,2013-03-11 09:41:00,
2013-03-11 10:46:00,58.3,44.0,29.50,SSE,161,4.0,4.5,59,0.00,,---,0.00,VWS V14.01,2013-03-11 09:46:00,
2013-03-11 10:51:00,58.8,44.5,29.50,SSE,161,4.0,5.4,59,0.00,,---,0.00,VWS V14.01,2013-03-11 09:51:00,
2013-03-11 10:56:00,58.6,41.6,29.50,South,171,5.4,5.8,53,0.00,,---,0.00,VWS V14.01,2013-03-11 09:56:00,
2013-03-11 11:01:00,57.9,39.9,29.50,SSE,147,2.7,4.5,51,0.00,,---,0.00,VWS V14.01,2013-03-11 10:01:00,
2013-03-11 11:06:00,57.7,40.2,29.50,SSE,165,6.7,9.2,52,0.00,,---,0.00,VWS V14.01,2013-03-11 10:06:00,
2013-03-11 11:11:00,57.7,41.2,29.50,WNW,298,7.4,9.2,54,0.00,,---,0.00,VWS V14.01,2013-03-11 10:11:00,
2013-03-11 11:16:00,57.6,41.1,29.50,West,274,4.0,7.4,54,0.00,,---,0.00,VWS V14.01,2013-03-11 10:16:00,
2013-03-11 11:21:00,57.4,40.9,29.50,WSW,253,3.6,8.7,54,0.00,,---,0.00,VWS V14.01,2013-03-11 10:21:00,
2013-03-11 11:26:00,57.6,41.5,29.50,West,277,5.8,6.7,55,0.00,,---,0.00,VWS V14.01,2013-03-11 10:26:00,
2013-03-11 11:31:00,58.1,43.0,29.50,WNW,284,4.9,6.7,57,0.00,,---,0.00,VWS V14.01,2013-03-11 10:31:00,
2013-03-11 11:36:00,58.6,43.5,29.50,SSE,157,3.1,4.9,57,0.00,,---,0.00,VWS V14.01,2013-03-11 10:36:00,
2013-03-11 11:41:00,58.5,41.9,29.50,ESE,116,3.6,5.4,54,0.00,,---,0.00,VWS V14.01,2013-03-11 10:41:00,
2013-03-11 11:46:00,58.5,41.4,29.50,WNW,294,8.7,10.1,53,0.00,,---,0.00,VWS V14.01,2013-03-11 10:46:00,
2013-03-11 11:51:00,59.0,41.9,29.50,NW,324,6.3,10.1,53,0.00,,---,0.00,VWS V14.01,2013-03-11 10:51:00,
2013-03-11 11:56:00,58.3,40.2,29.50,WNW,287,7.8,9.6,51,0.00,,---,0.00,VWS V14.01,2013-03-11 10:56:00,
2013-03-11 12:01:00,58.6,41.6,29.50,WNW,290,5.8,6.9,53,0.00,,---,0.00,VWS V14.01,2013-03-11 11:01:00,
2013-03-11 12:06:00,59.2,41.6,29.50,SSE,157,2.7,4.5,52,0.00,,---,0.00,VWS V14.01,2013-03-11 11:06:00,
2013-03-11 12:11:00,58.5,39.9,29.50,West,273,3.6,4.0,50,0.00,,---,0.00,VWS V14.01,2013-03-11 11:11:00,
2013-03-11 12:16:00,57.9,39.4,29.50,SSE,158,0.0,4.0,50,0.00,,---,0.00,VWS V14.01,2013-03-11 11:16:00,
2013-03-11 12:21:00,57.7,39.8,29.50,SSW,210,0.0,3.1,51,0.00,,---,0.00,VWS V14.01,2013-03-11 11:21:00,
2013-03-11 12:26:00,57.7,40.2,29.50,WNW,297,5.8,6.9,52,0.00,,---,0.00,VWS V14.01,2013-03-11 11:26:00,
2013-03-11 12:31:00,57.7,39.8,29.50,South,187,4.0,8.7,51,0.00,,---,0.00,VWS V14.01,2013-03-11 11:31:00,
2013-03-11 12:36:00,57.9,38.9,29.50,WNW,299,12.1,16.8,49,0.00,,---,0.00,VWS V14.01,2013-03-11 11:36:00,
2013-03-11 12:41:00,58.1,38.0,29.50,West,276,8.7,11.2,47,0.00,,---,0.00,VWS V14.01,2013-03-11 11:41:00,
2013-03-11 12:46:00,58.3,38.2,29.50,NNW,336,9.2,16.8,47,0.00,,---,0.00,VWS V14.01,2013-03-11 11:46:00,
2013-03-11 12:51:00,58.6,37.9,29.50,West,274,16.8,16.8,46,0.00,,---,0.00,VWS V14.01,2013-03-11 11:51:00,
2013-03-11 12:56:00,58.8,37.5,29.50,WNW,287,9.2,11.0,45,0.00,,---,0.00,VWS V14.01,2013-03-11 11:56:00,
2013-03-11 13:01:00,59.0,37.7,29.50,WNW,290,14.3,14.3,45,0.00,,---,0.00,VWS V14.01,2013-03-11 12:01:00,
2013-03-11 13:06:00,59.0,38.3,29.50,WNW,282,11.6,15.2,46,0.00,,---,0.00,VWS V14.01,2013-03-11 12:06:00,
2013-03-11 13:11:00,58.8,38.1,29.50,WNW,287,13.4,15.4,46,0.00,,---,0.00,VWS V14.01,2013-03-11 12:11:00,
2013-03-11 13:16:00,58.3,37.6,29.50,West,269,4.5,12.5,46,0.00,,---,0.00,VWS V14.01,2013-03-11 12:16:00,
2013-03-11 13:21:00,57.9,37.8,29.50,West,267,3.6,11.2,47,0.00,,---,0.00,VWS V14.01,2013-03-11 12:21:00,
2013-03-11 13:26:00,57.7,38.2,29.50,West,273,8.7,8.7,48,0.00,,---,0.00,VWS V14.01,2013-03-11 12:26:00,
2013-03-11 13:31:00,58.1,39.1,29.50,West,275,14.8,15.4,49,0.00,,---,0.00,VWS V14.01,2013-03-11 12:31:00,
2013-03-11 13:36:00,58.3,38.7,29.50,WNW,292,9.2,11.2,48,0.00,,---,0.00,VWS V14.01,2013-03-11 12:36:00,
2013-03-11 13:41:00,58.6,39.0,29.50,West,280,11.2,13.9,48,0.00,,---,0.00,VWS V14.01,2013-03-11 12:41:00,
2013-03-11 13:46:00,58.8,38.7,29.50,WNW,295,8.7,14.8,47,0.00,,---,0.00,VWS V14.01,2013-03-11 12:46:00,
2013-03-11 13:51:00,58.8,38.1,29.47,WNW,288,6.7,15.2,46,0.00,,---,0.00,VWS V14.01,2013-03-11 12:51:00,
2013-03-11 13:56:00,59.0,37.7,29.47,WNW,284,11.2,11.6,45,0.00,,---,0.00,VWS V14.01,2013-03-11 12:56:00,
2013-03-11 14:01:00,59.0,37.7,29.47,WNW,288,8.3,13.0,45,0.00,,---,0.00,VWS V14.01,2013-03-11 13:01:00,
2013-03-11 14:06:00,58.5,36.7,29.47,WNW,287,13.0,15.4,44,0.00,,---,0.00,VWS V14.01,2013-03-11 13:06:00,
2013-03-11 14:11:00,58.1,36.3,29.47,WNW,297,13.9,15.2,44,0.00,,---,0.00,VWS V14.01,2013-03-11 13:11:00,
2013-03-11 14:16:00,58.1,35.7,29.47,West,266,14.3,14.3,43,0.00,,---,0.00,VWS V14.01,2013-03-11 13:16:00,
2013-03-11 14:21:00,58.1,36.3,29.50,West,279,12.5,15.9,44,0.00,,---,0.00,VWS V14.01,2013-03-11 13:21:00,
2013-03-11 14:26:00,58.1,35.7,29.50,West,275,11.2,15.4,43,0.00,,---,0.00,VWS V14.01,2013-03-11 13:26:00,
2013-03-11 14:31:00,58.1,35.7,29.50,North,351,3.6,11.6,43,0.00,,---,0.00,VWS V14.01,2013-03-11 13:31:00,
2013-03-11 14:36:00,58.1,35.7,29.47,West,279,7.4,13.0,43,0.00,,---,0.00,VWS V14.01,2013-03-11 13:36:00,
2013-03-11 14:41:00,58.3,35.9,29.47,WNW,295,11.6,11.6,43,0.00,,---,0.00,VWS V14.01,2013-03-11 13:41:00,
2013-03-11 14:46:00,58.3,35.9,29.47,West,276,5.4,12.1,43,0.00,,---,0.00,VWS V14.01,2013-03-11 13:46:00,
2013-03-11 14:51:00,58.3,36.5,29.47,West,272,13.9,15.2,44,0.00,,---,0.00,VWS V14.01,2013-03-11 13:51:00,
2013-03-11 14:56:00,58.1,35.7,29.47,NW,309,12.5,13.4,43,0.00,,---,0.00,VWS V14.01,2013-03-11 13:56:00,
2013-03-11 15:01:00,57.9,36.2,29.47,WNW,289,11.6,14.3,44,0.00,,---,0.00,VWS V14.01,2013-03-11 14:01:00,
2013-03-11 15:06:00,57.6,35.8,29.47,WNW,297,8.7,13.9,44,0.00,,---,0.00,VWS V14.01,2013-03-11 14:06:00,
2013-03-11 15:11:00,57.4,35.7,29.47,WNW,284,12.5,13.4,44,0.00,,---,0.00,VWS V14.01,2013-03-11 14:11:00,
2013-03-11 15:16:00,57.4,36.2,29.47,West,276,11.2,11.2,45,0.00,,---,0.00,VWS V14.01,2013-03-11 14:16:00,
2013-03-11 15:21:00,57.4,36.2,29.50,WNW,297,13.0,16.3,45,0.00,,---,0.00,VWS V14.01,2013-03-11 14:21:00,
2013-03-11 15:26:00,57.2,36.1,29.50,SSE,148,4.9,13.4,45,0.00,,---,0.00,VWS V14.01,2013-03-11 14:26:00,
2013-03-11 15:31:00,57.2,36.6,29.50,WNW,290,7.4,12.1,46,0.00,,---,0.00,VWS V14.01,2013-03-11 14:31:00,
2013-03-11 15:36:00,57.0,36.5,29.50,West,272,12.5,13.9,46,0.00,,---,0.00,VWS V14.01,2013-03-11 14:36:00,
2013-03-11 15:41:00,56.7,36.7,29.50,WNW,290,10.5,11.6,47,0.00,,---,0.00,VWS V14.01,2013-03-11 14:41:00,
2013-03-11 15:46:00,56.5,36.5,29.50,WNW,290,13.9,14.8,47,0.00,,---,0.00,VWS V14.01,2013-03-11 14:46:00,
2013-03-11 15:51:00,56.5,37.0,29.50,West,275,7.8,14.3,48,0.00,,---,0.00,VWS V14.01,2013-03-11 14:51:00,
2013-03-11 15:56:00,56.3,36.9,29.50,West,272,7.8,12.1,48,0.00,,---,0.00,VWS V14.01,2013-03-11 14:56:00,
2013-03-11 16:01:00,56.3,37.4,29.50,West,276,13.4,13.4,49,0.00,,---,0.00,VWS V14.01,2013-03-11 15:01:00,
2013-03-11 16:06:00,56.1,37.2,29.50,West,270,8.3,13.0,49,0.00,,---,0.00,VWS V14.01,2013-03-11 15:06:00,
2013-03-11 16:11:00,55.9,37.6,29.50,WNW,282,10.1,13.0,50,0.00,,---,0.00,VWS V14.01,2013-03-11 15:11:00,
2013-03-11 16:16:00,55.8,37.4,29.50,West,276,11.0,11.6,50,0.00,,---,0.00,VWS V14.01,2013-03-11 15:16:00,
2013-03-11 16:21:00,55.4,37.1,29.50,West,281,9.2,11.2,50,0.00,,---,0.00,VWS V14.01,2013-03-11 15:21:00,
2013-03-11 16:26:00,55.2,36.9,29.50,WNW,286,10.1,12.1,50,0.00,,---,0.00,VWS V14.01,2013-03-11 15:26:00,
2013-03-11 16:31:00,55.0,37.3,29.50,WNW,289,11.2,14.3,51,0.00,,---,0.00,VWS V14.01,2013-03-11 15:31:00,
2013-03-11 16:36:00,54.9,37.1,29.50,WNW,287,11.2,13.0,51,0.00,,---,0.00,VWS V14.01,2013-03-11 15:36:00,
2013-03-11 16:41:00,54.7,37.4,29.50,WNW,288,7.4,10.1,52,0.00,,---,0.00,VWS V14.01,2013-03-11 15:41:00,
2013-03-11 16:46:00,54.7,37.4,29.50,WNW,284,6.7,10.1,52,0.00,,---,0.00,VWS V14.01,2013-03-11 15:46:00,
2013-03-11 16:51:00,54.5,37.7,29.50,West,276,8.3,9.6,53,0.00,,---,0.00,VWS V14.01,2013-03-11 15:51:00,
2013-03-11 16:56:00,54.5,37.7,29.50,West,273,7.8,8.3,53,0.00,,---,0.00,VWS V14.01,2013-03-11 15:56:00,
2013-03-11 17:01:00,54.5,37.7,29.50,WNW,286,6.7,6.7,53,0.00,,---,0.00,VWS V14.01,2013-03-11 16:01:00,
2013-03-11 17:07:00,54.5,37.7,29.50,WNW,286,6.7,8.7,53,0.00,,---,0.00,VWS V14.01,2013-03-11 16:07:00,
2013-03-11 17:12:00,54.3,37.6,29.50,West,268,7.8,9.2,53,0.00,,---,0.00,VWS V14.01,2013-03-11 16:12:00,
2013-03-11 17:17:00,54.1,37.4,29.50,WNW,285,5.4,6.9,53,0.00,,---,0.00,VWS V14.01,2013-03-11 16:17:00,
2013-03-11 17:22:00,54.0,37.7,29.50,WNW,284,7.4,8.7,54,0.00,,---,0.00,VWS V14.01,2013-03-11 16:22:00,
2013-03-11 17:27:00,54.1,37.9,29.50,West,280,5.8,7.8,54,0.00,,---,0.00,VWS V14.01,2013-03-11 16:27:00,
2013-03-11 17:32:00,54.0,37.7,29.50,West,279,7.8,7.8,54,0.00,,---,0.00,VWS V14.01,2013-03-11 16:32:00,
2013-03-11 17:37:00,53.6,37.4,29.50,WNW,291,8.7,9.6,54,0.00,,---,0.00,VWS V14.01,2013-03-11 16:37:00,
2013-03-11 17:42:00,53.2,37.0,29.50,West,276,5.8,8.3,54,0.00,,---,0.00,VWS V14.01,2013-03-11 16:42:00,
2013-03-11 17:47:00,52.9,36.2,29.50,WNW,283,7.8,8.3,53,0.00,,---,0.00,VWS V14.01,2013-03-11 16:47:00,
2013-03-11 17:52:00,52.7,36.5,29.50,WNW,289,8.7,8.7,54,0.00,,---,0.00,VWS V14.01,2013-03-11 16:52:00,
2013-03-11 17:57:00,52.3,36.2,29.50,West,270,6.7,7.8,54,0.00,,---,0.00,VWS V14.01,2013-03-11 16:57:00,
2013-03-11 18:02:00,52.2,36.0,29.50,West,274,7.4,9.6,54,0.00,,---,0.00,VWS V14.01,2013-03-11 17:02:00,
2013-03-11 18:07:00,51.8,35.7,29.50,WNW,288,6.9,7.8,54,0.00,,---,0.00,VWS V14.01,2013-03-11 17:07:00,
2013-03-11 18:12:00,51.6,36.0,29.50,West,266,9.6,13.4,55,0.00,,---,0.00,VWS V14.01,2013-03-11 17:12:00,
2013-03-11 18:17:00,51.4,35.8,29.50,West,273,8.3,11.2,55,0.00,,---,0.00,VWS V14.01,2013-03-11 17:17:00,
2013-03-11 18:22:00,51.3,36.1,29.53,WNW,283,6.7,9.2,56,0.00,,---,0.00,VWS V14.01,2013-03-11 17:22:00,
2013-03-11 18:27:00,51.1,36.0,29.53,WNW,290,6.3,8.3,56,0.00,,---,0.00,VWS V14.01,2013-03-11 17:27:00,
2013-03-11 18:32:00,50.9,36.2,29.53,WNW,298,9.6,9.6,57,0.00,,---,0.00,VWS V14.01,2013-03-11 17:32:00,
2013-03-11 18:37:00,50.7,36.1,29.50,WNW,296,8.7,9.6,57,0.00,,---,0.00,VWS V14.01,2013-03-11 17:37:00,
2013-03-11 18:42:00,50.5,35.9,29.50,WNW,284,7.8,8.3,57,0.00,,---,0.00,VWS V14.01,2013-03-11 17:42:00,
2013-03-11 18:47:00,50.5,35.9,29.50,West,281,6.9,8.7,57,0.00,,---,0.00,VWS V14.01,2013-03-11 17:47:00,
2013-03-11 18:53:00,50.4,35.7,29.50,WNW,290,5.8,9.6,57,0.00,,---,0.00,VWS V14.01,2013-03-11 17:53:00,
2013-03-11 18:58:00,50.2,35.5,29.50,West,278,7.4,7.4,57,0.00,,---,0.00,VWS V14.01,2013-03-11 17:58:00,
2013-03-11 19:03:00,50.2,35.5,29.50,West,276,9.2,9.2,57,0.00,,---,0.00,VWS V14.01,2013-03-11 18:03:00,
2013-03-11 19:08:00,50.0,35.4,29.53,West,277,7.4,8.7,57,0.00,,---,0.00,VWS V14.01,2013-03-11 18:08:00,
2013-03-11 19:13:00,49.8,35.2,29.53,West,273,7.8,8.7,57,0.00,,---,0.00,VWS V14.01,2013-03-11 18:13:00,
2013-03-11 19:18:00,49.6,35.0,29.53,West,268,4.5,6.7,57,0.00,,---,0.00,VWS V14.01,2013-03-11 18:18:00,
2013-03-11 19:23:00,49.5,35.3,29.53,WNW,286,5.8,7.4,58,0.00,,---,0.00,VWS V14.01,2013-03-11 18:23:00,
2013-03-11 19:28:00,49.5,35.3,29.53,WNW,288,5.4,5.8,58,0.00,,---,0.00,VWS V14.01,2013-03-11 18:28:00,
2013-03-11 19:33:00,49.3,35.1,29.53,West,274,4.0,5.4,58,0.00,,---,0.00,VWS V14.01,2013-03-11 18:33:00,
2013-03-11 19:38:00,49.1,35.0,29.53,West,275,5.4,6.3,58,0.00,,---,0.00,VWS V14.01,2013-03-11 18:38:00,
2013-03-11 19:43:00,48.9,35.2,29.53,West,277,4.5,4.9,59,0.00,,---,0.00,VWS V14.01,2013-03-11 18:43:00,
2013-03-11 19:48:00,48.7,35.1,29.53,West,276,4.0,4.9,59,0.00,,---,0.00,VWS V14.01,2013-03-11 18:48:00,
2013-03-11 19:53:00,48.7,35.5,29.53,West,277,3.6,3.6,60,0.00,,---,0.00,VWS V14.01,2013-03-11 18:53:00,
2013-03-11 19:58:00,48.6,35.3,29.53,West,277,3.1,4.0,60,0.00,,---,0.00,VWS V14.01,2013-03-11 18:58:00,
2013-03-11 20:03:00,48.4,35.2,29.53,West,281,2.7,4.5,60,0.00,,---,0.00,VWS V14.01,2013-03-11 19:03:00,
2013-03-11 20:08:00,48.2,35.4,29.53,West,277,3.6,5.4,61,0.00,,---,0.00,VWS V14.01,2013-03-11 19:08:00,
2013-03-11 20:13:00,48.0,35.2,29.53,WNW,287,3.6,4.0,61,0.00,,---,0.00,VWS V14.01,2013-03-11 19:13:00,
2013-03-11 20:18:00,47.8,35.1,29.53,WNW,286,0.0,0.0,61,0.00,,---,0.00,VWS V14.01,2013-03-11 19:18:00,
2013-03-11 20:23:00,47.5,35.1,29.53,WNW,286,0.0,3.1,62,0.00,,---,0.00,VWS V14.01,2013-03-11 19:23:00,
2013-03-11 20:28:00,47.3,35.0,29.53,WNW,286,0.0,3.1,62,0.00,,---,0.00,VWS V14.01,2013-03-11 19:28:00,
2013-03-11 20:33:00,47.1,34.8,29.53,WNW,286,0.0,0.0,62,0.00,,---,0.00,VWS V14.01,2013-03-11 19:33:00,
2013-03-11 20:38:00,47.1,34.8,29.53,WNW,286,0.0,0.0,62,0.00,,---,0.00,VWS V14.01,2013-03-11 19:38:00,
2013-03-11 20:43:00,47.1,34.8,29.53,WNW,286,0.0,0.0,62,0.00,,---,0.00,VWS V14.01,2013-03-11 19:43:00,
2013-03-11 20:48:00,46.9,35.0,29.53,WNW,286,0.0,2.7,63,0.00,,---,0.00,VWS V14.01,2013-03-11 19:48:00,
2013-03-11 20:53:00,46.9,35.0,29.56,WNW,285,3.6,4.0,63,0.00,,---,0.00,VWS V14.01,2013-03-11 19:53:00,
2013-03-11 20:58:00,46.8,34.4,29.56,WNW,285,0.0,0.0,62,0.00,,---,0.00,VWS V14.01,2013-03-11 19:58:00,
2013-03-11 21:03:00,46.6,34.3,29.56,WNW,285,0.0,0.0,62,0.00,,---,0.00,VWS V14.01,2013-03-11 20:03:00,
2013-03-11 21:08:00,46.6,34.7,29.56,WNW,285,0.0,0.0,63,0.00,,---,0.00,VWS V14.01,2013-03-11 20:08:00,
2013-03-11 21:13:00,46.6,34.7,29.56,WNW,285,0.0,0.0,63,0.00,,---,0.00,VWS V14.01,2013-03-11 20:13:00,
2013-03-11 21:18:00,46.4,34.5,29.56,WNW,285,0.0,0.0,63,0.00,,---,0.00,VWS V14.01,2013-03-11 20:18:00,
2013-03-11 21:23:00,46.4,34.5,29.56,WNW,285,2.7,2.7,63,0.00,,---,0.00,VWS V14.01,2013-03-11 20:23:00,
2013-03-11 21:28:00,46.4,34.1,29.56,WNW,285,0.0,0.0,62,0.00,,---,0.00,VWS V14.01,2013-03-11 20:28:00,
2013-03-11 21:33:00,46.4,34.1,29.56,WNW,285,0.0,2.7,62,0.00,,---,0.00,VWS V14.01,2013-03-11 20:33:00,
2013-03-11 21:38:00,46.4,34.1,29.56,WNW,285,0.0,2.7,62,0.00,,---,0.00,VWS V14.01,2013-03-11 20:38:00,
2013-03-11 21:43:00,46.4,34.1,29.56,WNW,285,0.0,0.0,62,0.00,,---,0.00,VWS V14.01,2013-03-11 20:43:00,
2013-03-11 21:48:00,46.2,33.9,29.56,WNW,285,3.1,3.1,62,0.00,,---,0.00,VWS V14.01,2013-03-11 20:48:00,
2013-03-11 21:53:00,46.2,33.9,29.56,West,261,2.7,3.1,62,0.00,,---,0.00,VWS V14.01,2013-03-11 20:53:00,
2013-03-11 21:58:00,46.0,33.8,29.56,West,277,3.1,5.4,62,0.00,,---,0.00,VWS V14.01,2013-03-11 20:58:00,
2013-03-11 22:03:00,46.2,33.5,29.56,West,281,0.0,0.0,61,0.00,,---,0.00,VWS V14.01,2013-03-11 21:03:00,
2013-03-11 22:08:00,45.9,33.2,29.56,West,281,0.0,0.0,61,0.00,,---,0.00,VWS V14.01,2013-03-11 21:08:00,
2013-03-11 22:13:00,45.7,33.0,29.56,West,281,0.0,0.0,61,0.00,,---,0.00,VWS V14.01,2013-03-11 21:13:00,
2013-03-11 22:18:00,45.5,32.8,29.56,West,281,0.0,0.0,61,0.00,,---,0.00,VWS V14.01,2013-03-11 21:18:00,
2013-03-11 22:23:00,45.3,33.1,29.56,West,281,0.0,0.0,62,0.00,,---,0.00,VWS V14.01,2013-03-11 21:23:00,
2013-03-11 22:28:00,45.3,33.1,29.56,West,281,0.0,0.0,62,0.00,,---,0.00,VWS V14.01,2013-03-11 21:28:00,
2013-03-11 22:33:00,45.3,33.1,29.56,West,279,4.0,4.9,62,0.00,,---,0.00,VWS V14.01,2013-03-11 21:33:00,
2013-03-11 22:38:00,45.1,32.9,29.56,WNW,288,4.0,4.5,62,0.00,,---,0.00,VWS V14.01,2013-03-11 21:38:00,
2013-03-11 22:43:00,45.0,32.7,29.56,West,276,2.7,5.4,62,0.00,,---,0.00,VWS V14.01,2013-03-11 21:43:00,
2013-03-11 22:48:00,44.8,32.6,29.56,West,277,4.5,4.5,62,0.00,,---,0.00,VWS V14.01,2013-03-11 21:48:00,
2013-03-11 22:53:00,44.6,32.8,29.56,WNW,286,6.7,6.9,63,0.00,,---,0.00,VWS V14.01,2013-03-11 21:53:00,
2013-03-11 22:58:00,44.4,32.6,29.56,WNW,283,6.9,7.8,63,0.00,,---,0.00,VWS V14.01,2013-03-11 21:58:00,
2013-03-11 23:04:00,44.2,32.5,29.56,WNW,283,6.9,6.9,63,0.00,,---,0.00,VWS V14.01,2013-03-11 22:04:00,
2013-03-11 23:09:00,44.1,32.3,29.56,WNW,284,6.7,8.3,63,0.00,,---,0.00,VWS V14.01,2013-03-11 22:09:00,
2013-03-11 23:14:00,43.7,32.0,29.56,West,277,5.4,6.3,63,0.00,,---,0.00,VWS V14.01,2013-03-11 22:14:00,
2013-03-11 23:19:00,43.3,32.0,29.56,West,278,4.9,5.4,64,0.00,,---,0.00,VWS V14.01,2013-03-11 22:19:00,
2013-03-11 23:24:00,43.0,31.6,29.56,WNW,286,4.0,4.9,64,0.00,,---,0.00,VWS V14.01,2013-03-11 22:24:00,
2013-03-11 23:29:00,42.8,31.9,29.56,West,281,0.0,2.7,65,0.00,,---,0.00,VWS V14.01,2013-03-11 22:29:00,
2013-03-11 23:34:00,42.8,31.9,29.56,West,277,4.5,5.4,65,0.00,,---,0.00,VWS V14.01,2013-03-11 22:34:00,
2013-03-11 23:39:00,42.4,31.9,29.56,West,278,4.9,6.3,66,0.00,,---,0.00,VWS V14.01,2013-03-11 22:39:00,
2013-03-11 23:44:00,42.3,31.7,29.56,WNW,288,6.7,6.9,66,0.00,,---,0.00,VWS V14.01,2013-03-11 22:44:00,
2013-03-11 23:49:00,42.3,31.7,29.56,WNW,293,6.7,7.8,66,0.00,,---,0.00,VWS V14.01,2013-03-11 22:49:00,
2013-03-11 23:54:00,42.4,32.3,29.56,WNW,291,7.4,7.8,67,0.00,,---,0.00,VWS V14.01,2013-03-11 22:54:00,
2013-03-11 23:59:00,42.4,32.3,29.56,WNW,290,6.7,7.8,67,0.00,,---,0.00,VWS V14.01,2013-03-11 22:59:00,